Location: ??????-???
(48.4261°N, 37.7652°E)
Time: 23:00:30
(UTC+00:00)

IRS-P3 - Pass Details

Date: 07 June 2020
Orbit: 813 x 820 km, 98.8° (Epoch: 07 July)

Event Time Altitude Azimuth Distance (km) Brightness Sun altitude
Rises 00:15:08 0° 14° (NNE) 3,352 8.7 -9.6°
Reaches altitude 10° 00:17:29 10° 13° (NNE) 2,416 7.7 -9.3°
Maximum altitude 00:22:50 82° 287° (WNW) 828 4.2 -8.8°
Drops below altitude 10° 00:28:08 10° 200° (SSW) 2,397 6.0 -8.2°
Enters shadow 00:28:35 - 200° (SSW) 2,572 6.1 -8.1°
